Kankakee, IL

7:01 AM CDT on August 24, 2019 (GMT -0500)
Greater Kankakee

Weather History for KIKK - July, 2019

Change the Weather History Date:

Monday, July 22, 2019

  Actual Average Record
Temperature  
Mean Temperature 68 °F -  
Max Temperature 75 °F 84 °F 98 °F (1983)
Min Temperature 60 °F 63 °F 55 °F (1981)
Cooling Degree Days 2    
Growing Degree Days 18 (Base 50)    
Moisture  
Dew Point 57 °F    
Average Humidity 66    
Maximum Humidity 85    
Minimum Humidity 35    
Precipitation  
Precipitation 0.00 in - - ()
Sea Level Pressure  
Sea Level Pressure 30.04 in    
Wind  
Wind Speed 10 mph (NNE)    
Max Wind Speed 20 mph    
Max Gust Speed 25 mph    
Visibility 10 miles    
Events      
Averages and records for this station are not official NWS values.
T = Trace of Precipitation, MM = Missing Value Source: NWS Daily Summary

Daily Weather History Graph

Daily Weather History Graph

Search for Another Location

Airport or City:

Astronomy

Jul. 22, 2019 Rise Set
Actual Time 5:37 AM CDT 8:17 PM CDT
Civil Twilight 5:05 AM CDT 8:49 PM CDT
Nautical Twilight 4:25 AM CDT 9:29 PM CDT
Astronomical Twilight 3:40 AM CDT 10:14 PM CDT
Moon 11:35 PM CDT (7/22) 10:56 AM CDT (7/22)
Length of Visible Light 15h 43m
Length of Day
14h 39m
Waning Gibbous, 72% of the Moon is Illuminated
Jul 22
Waning Gibbous
Jul 24
Last Quarter
Jul 31
New
Aug 7
First Quarter
Aug 15
Full

Hourly Weather History & Observations

Time (CDT) Temp. Dew Point Humidity Pressure Visibility Wind Dir Wind Speed Gust Speed Precip Events Conditions
12:15 AM 69.1 °F 59.2 °F 71% 29.96 in 10.0 mi North 8.1 mph - N/A   Scattered Clouds
12:35 AM 68.4 °F 59.4 °F 73% 29.95 in 10.0 mi North 6.9 mph - N/A   Clear
12:55 AM 68.5 °F 59.9 °F 74% 29.95 in 10.0 mi North 6.9 mph - N/A   Clear
1:15 AM 68.9 °F 60.1 °F 73% 29.97 in 10.0 mi North 3.5 mph - N/A   Clear
1:35 AM 68.9 °F 59.5 °F 72% 29.97 in 10.0 mi North 3.5 mph - N/A   Clear
1:55 AM 68.2 °F 59.5 °F 74% 29.95 in 10.0 mi NNE 6.9 mph - N/A   Clear
2:15 AM 68.5 °F 59.2 °F 72% 29.97 in 10.0 mi NNW 9.2 mph - N/A   Clear
2:35 AM 68.2 °F 58.6 °F 71% 29.96 in 10.0 mi North 8.1 mph - N/A   Scattered Clouds
2:55 AM 69.1 °F 57.6 °F 67% 29.96 in 10.0 mi North 10.4 mph - N/A   Clear
3:15 AM 68.9 °F 57.4 °F 67% 29.96 in 10.0 mi North 10.4 mph - N/A   Clear
3:35 AM 68.7 °F 57.7 °F 68% 29.96 in 10.0 mi NNE 9.2 mph - N/A   Clear
3:55 AM 68.2 °F 58.1 °F 70% 29.97 in 10.0 mi NNE 9.2 mph - N/A   Clear
4:15 AM 67.5 °F 58.6 °F 73% 29.97 in 10.0 mi North 8.1 mph - N/A   Clear
4:35 AM 67.1 °F 59.5 °F 77% 29.96 in 10.0 mi NNE 9.2 mph - N/A   Clear
4:55 AM 67.1 °F 59.9 °F 78% 29.97 in 10.0 mi NNE 8.1 mph - N/A   Clear
5:15 AM 67.1 °F 60.6 °F 80% 29.99 in 10.0 mi North 9.2 mph - N/A   Clear
5:35 AM 67.3 °F 61.7 °F 82% 29.99 in 10.0 mi NNE 6.9 mph - N/A   Clear
5:55 AM 67.1 °F 61.0 °F 81% 30.00 in 10.0 mi North 6.9 mph - N/A   Clear
6:15 AM 67.3 °F 61.7 °F 82% 30.01 in 10.0 mi NNE 8.1 mph - N/A   Clear
6:35 AM 67.3 °F 62.6 °F 85% 30.01 in 10.0 mi North 10.4 mph - N/A   Clear
6:55 AM 67.5 °F 62.8 °F 85% 30.01 in 10.0 mi NNE 11.5 mph 17.3 mph N/A   Clear
7:15 AM 67.6 °F 63.1 °F 85% 30.02 in 10.0 mi NNE 11.5 mph 17.3 mph N/A   Clear
7:35 AM 68.0 °F 63.5 °F 85% 30.02 in 10.0 mi North 12.7 mph - N/A   Clear
7:55 AM 69.4 °F 64.2 °F 83% 30.02 in 10.0 mi NNE 16.1 mph - N/A   Clear
8:15 AM 70.7 °F 63.9 °F 79% 30.03 in 10.0 mi NNE 15.0 mph - N/A   Clear
8:35 AM 70.9 °F 63.1 °F 76% 30.04 in 10.0 mi NNE 13.8 mph - N/A   Clear
8:55 AM 70.9 °F 62.6 °F 75% 30.04 in 10.0 mi NNE 18.4 mph 24.2 mph N/A   Clear
9:15 AM 69.8 °F 61.7 °F 75% 30.04 in 10.0 mi NE 19.6 mph 25.3 mph N/A   Clear
9:35 AM 70.5 °F 60.8 °F 71% 30.04 in 10.0 mi NE 16.1 mph - N/A   Clear
9:55 AM 69.3 °F 59.0 °F 70% 30.04 in 10.0 mi NNE 15.0 mph 20.7 mph N/A   Clear
10:15 AM 69.8 °F 59.9 °F 71% 30.05 in 10.0 mi NE 12.7 mph - N/A   Clear
10:35 AM 70.7 °F 60.1 °F 69% 30.05 in 10.0 mi NNE 13.8 mph 20.7 mph N/A   Clear
10:55 AM 71.1 °F 59.9 °F 68% 30.05 in 10.0 mi NNE 17.3 mph - N/A   Clear
11:15 AM 70.9 °F 57.7 °F 63% 30.05 in 10.0 mi NNE 16.1 mph 20.7 mph N/A   Clear
11:35 AM 73.4 °F 58.8 °F 60% 30.05 in 10.0 mi North 19.6 mph 24.2 mph N/A   Clear
11:55 AM 73.0 °F 58.5 °F 60% 30.05 in 10.0 mi NNE 12.7 mph 21.9 mph N/A   Clear
12:15 PM 73.6 °F 57.7 °F 58% 30.05 in 10.0 mi NNE 19.6 mph 24.2 mph N/A   Clear
12:35 PM 74.7 °F 59.0 °F 58% 30.05 in 10.0 mi NNE 15.0 mph - N/A   Clear
12:55 PM 74.1 °F 57.4 °F 56% 30.05 in 10.0 mi NNE 15.0 mph 23.0 mph N/A   Clear
1:15 PM 74.1 °F 57.2 °F 55% 30.05 in 10.0 mi NNE 16.1 mph - N/A   Clear
1:35 PM 74.7 °F 59.0 °F 58% 30.06 in 10.0 mi NNE 15.0 mph 21.9 mph N/A   Clear
1:55 PM 74.8 °F 58.1 °F 56% 30.06 in 10.0 mi NNE 15.0 mph 21.9 mph N/A   Clear
2:15 PM 74.8 °F 58.1 °F 56% 30.06 in 10.0 mi NNE 16.1 mph 19.6 mph N/A   Scattered Clouds
2:35 PM 75.2 °F 56.3 °F 52% 30.06 in 10.0 mi NNE 19.6 mph - N/A   Scattered Clouds
2:55 PM 75.2 °F 51.3 °F 43% 30.07 in 10.0 mi NNE 16.1 mph 23.0 mph N/A   Clear
3:15 PM 75.0 °F 49.6 °F 41% 30.07 in 10.0 mi North 16.1 mph 23.0 mph N/A   Clear
3:35 PM 74.5 °F 45.9 °F 36% 30.07 in 10.0 mi North 17.3 mph - N/A   Clear
3:55 PM 74.8 °F 45.5 °F 35% 30.07 in 10.0 mi North 17.3 mph 23.0 mph N/A   Clear
4:15 PM 74.7 °F 45.9 °F 36% 30.08 in 10.0 mi North 17.3 mph 21.9 mph N/A   Clear
4:35 PM 74.7 °F 46.9 °F 37% 30.08 in 10.0 mi NNE 12.7 mph 20.7 mph N/A   Clear
4:55 PM 74.3 °F 45.9 °F 36% 30.08 in 10.0 mi North 15.0 mph 24.2 mph N/A   Clear
5:15 PM 74.1 °F 47.8 °F 39% 30.08 in 10.0 mi NE 16.1 mph 20.7 mph N/A   Clear
5:35 PM 73.4 °F 47.8 °F 40% 30.07 in 10.0 mi NE 13.8 mph - N/A   Clear
5:55 PM 73.0 °F 46.4 °F 39% 30.07 in 10.0 mi NE 12.7 mph - N/A   Clear
6:15 PM 72.7 °F 48.6 °F 42% 30.07 in 10.0 mi NNE 11.5 mph - N/A   Clear
6:35 PM 72.3 °F 51.1 °F 47% 30.07 in 10.0 mi NE 10.4 mph - N/A   Clear
6:55 PM 71.2 °F 52.5 °F 52% 30.08 in 10.0 mi NE 9.2 mph - N/A   Clear
7:15 PM 70.3 °F 53.4 °F 55% 30.08 in 10.0 mi NE 8.1 mph - N/A   Clear
7:35 PM 68.9 °F 54.5 °F 60% 30.08 in 10.0 mi NE 6.9 mph - N/A   Clear
7:55 PM 67.1 °F 54.5 °F 64% 30.09 in 10.0 mi NE 4.6 mph - N/A   Clear
8:15 PM 65.3 °F 55.2 °F 70% 30.09 in 10.0 mi NE 4.6 mph - N/A   Clear
8:35 PM 63.9 °F 55.6 °F 74% 30.09 in 10.0 mi NNE 4.6 mph - N/A   Clear
8:55 PM 62.6 °F 55.4 °F 77% 30.10 in 10.0 mi NNE 5.8 mph - N/A   Clear
9:15 PM 62.1 °F 54.9 °F 77% 30.10 in 10.0 mi North 3.5 mph - N/A   Clear
9:35 PM 62.8 °F 54.5 °F 74% 30.10 in 10.0 mi Calm Calm - N/A   Clear
9:55 PM 62.1 °F 54.3 °F 76% 30.10 in 10.0 mi Calm Calm - N/A   Clear
10:15 PM 62.1 °F 54.5 °F 76% 30.10 in 10.0 mi Calm Calm - N/A   Clear
10:35 PM 61.9 °F 54.5 °F 77% 30.10 in 10.0 mi Calm Calm - N/A   Clear
10:55 PM 61.2 °F 54.9 °F 80% 30.10 in 10.0 mi Calm Calm - N/A   Clear
11:15 PM 60.8 °F 55.0 °F 81% 30.10 in 10.0 mi Calm Calm - N/A   Clear
11:35 PM 60.8 °F 53.6 °F 77% 30.11 in 10.0 mi Calm Calm - N/A   Clear
11:55 PM 60.6 °F 54.3 °F 80% 30.12 in 10.0 mi Calm Calm - N/A   Clear